Location: Sungai Jaoh
(2.9167°N, 113.9167°E)
Time: 06:46:35
(UTC+00:00)

ARIANE 42L R/B - Pass Details

Date: 30 November 2020
Orbit: 477 x 36537 km, 3.8° (Epoch: 25 January)

Event Time Altitude Azimuth Distance (km) Brightness Sun altitude
Exits shadow 21:17:59 - 261° (W) 4,223 6.3 -13.9°
Reaches altitude 10° 21:18:19 10° 260° (W) 4,063 6.2 -13.8°
Maximum altitude 21:25:41 59° 181° (S) 760 3.1 -12.1°
Drops below altitude 10° 21:28:38 10° 99° (E) 1,666 6.2 -11.5°
Sets 21:30:16 0° 94° (E) 2,507 7.3 -11.1°
